Location: Vienna
(48.2082°N, 16.3738°E)
Time: 09:50:46
(UTC+02:00)

ISS - Pass Details

Date: 13 July 2018
Orbit: 402 x 408 km, 51.6° (Epoch: 23 July)

Event Time Altitude Azimuth Distance (km) Brightness Sun altitude
Exits shadow 03:30:26 - 274° (W) 1,757 -0.9 -12.3°
Reaches altitude 10° 03:31:09 10° 277° (W) 1,470 -1.3 -12.2°
Maximum altitude 03:34:21 47° 353° (N) 555 -2.8 -11.9°
Drops below altitude 10° 03:37:33 10° 68° (ENE) 1,475 0.0 -11.6°
Sets 03:39:42 0° 75° (ENE) 2,337 1.0 -11.4°
